ITY039 LTAC-UBBB

Flight info

Callsign ITY039
Flight time 2h 6m
Altitude 37000
Route BENTA A4 ERZ B374 INDUR N161 EDATA N199 LUSAL M11 ERLEV
Aircraft A320/M-SDE3FGHIRWY/LB1

Departure

Time 2026-04-27 17:30
Airport Esenboğa International Airport (LTAC)

Arrival

Time 2026-04-27 19:37
Airport Heydar Aliyev International Airport (UBBB)
Time Latitude Longitude Altitude Speed Heading
2026-04-27 16:47 40.11701 32.99427 3113 ft 0 kts 168°
2026-04-27 16:52 40.11702 32.99427 3113 ft 0 kts 168°
2026-04-27 17:07 40.11703 32.99427 3113 ft 0 kts 168°
2026-04-27 17:19 40.11711 32.99424 3114 ft 2 kts 168°
2026-04-27 17:20 40.11725 32.99421 3114 ft 2 kts 169°
2026-04-27 17:20 40.11738 32.99418 3114 ft 2 kts 171°
2026-04-27 17:20 40.11750 32.99416 3114 ft 2 kts 178°
2026-04-27 17:20 40.11758 32.99415 3113 ft 1 kts 193°
2026-04-27 17:21 40.11764 32.99416 3113 ft 1 kts 214°
2026-04-27 17:21 40.11769 32.99420 3113 ft 1 kts 244°
2026-04-27 17:21 40.11771 32.99426 3113 ft 1 kts 253°
2026-04-27 17:21 40.11773 32.99433 3113 ft 1 kts 258°
2026-04-27 17:22 40.11774 32.99440 3113 ft 1 kts 259°
2026-04-27 17:22 40.11774 32.99443 3113 ft 0 kts 259°
2026-04-27 17:24 40.11772 32.99427 3113 ft 5 kts 258°
2026-04-27 17:24 40.11759 32.99353 3113 ft 12 kts 257°
2026-04-27 17:24 40.11726 32.99228 3113 ft 17 kts 248°
2026-04-27 17:24 40.11746 32.99112 3113 ft 15 kts 330°
2026-04-27 17:25 40.11803 32.99044 3113 ft 6 kts 308°
2026-04-27 17:25 40.11793 32.98990 3113 ft 9 kts 215°
2026-04-27 17:25 40.11724 32.98926 3113 ft 15 kts 216°
2026-04-27 17:25 40.11631 32.98837 3112 ft 17 kts 217°
2026-04-27 17:26 40.11530 32.98741 3112 ft 19 kts 216°
2026-04-27 17:26 40.11421 32.98637 3111 ft 19 kts 217°
2026-04-27 17:26 40.11390 32.98606 3110 ft 4 kts 217°
2026-04-27 17:26 40.11363 32.98573 3110 ft 6 kts 231°
2026-04-27 17:27 40.11340 32.98502 3109 ft 10 kts 249°
2026-04-27 17:27 40.11361 32.98423 3109 ft 6 kts 306°
2026-04-27 17:27 40.11372 32.98404 3109 ft 1 kts 306°
2026-04-27 17:27 40.11378 32.98393 3109 ft 2 kts 306°
2026-04-27 17:28 40.11388 32.98375 3109 ft 3 kts 306°
2026-04-27 17:28 40.11413 32.98330 3109 ft 9 kts 306°
2026-04-27 17:28 40.11513 32.98171 3109 ft 11 kts 329°
2026-04-27 17:29 40.11585 32.98185 3110 ft 12 kts 31°
2026-04-27 17:29 40.11654 32.98247 3110 ft 13 kts 36°
2026-04-27 17:29 40.11690 32.98281 3110 ft 0 kts 36°
2026-04-27 17:29 40.11791 32.98380 3112 ft 51 kts 37°
2026-04-27 17:30 40.12244 32.98813 3117 ft 110 kts 36°
2026-04-27 17:30 40.13831 33.00351 3375 ft 164 kts 38°
2026-04-27 17:30 40.14722 33.01268 4008 ft 164 kts 38°
2026-04-27 17:31 40.15624 33.02212 4475 ft 170 kts 38°
2026-04-27 17:31 40.16605 33.03251 4704 ft 192 kts 38°
2026-04-27 17:31 40.17713 33.04419 4934 ft 217 kts 37°
2026-04-27 17:31 40.18952 33.05722 5345 ft 237 kts 38°
2026-04-27 17:32 40.20236 33.07138 6046 ft 246 kts 47°
2026-04-27 17:32 40.20664 33.11484 7196 ft 273 kts 116°
2026-04-27 17:32 40.19643 33.13620 7871 ft 280 kts 127°
2026-04-27 17:33 40.18409 33.15621 8684 ft 284 kts 131°
2026-04-27 17:33 40.17104 33.17586 9483 ft 288 kts 133°
2026-04-27 17:33 40.15794 33.19552 10233 ft 293 kts 131°
2026-04-27 17:33 40.14427 33.21654 10523 ft 315 kts 131°
2026-04-27 17:34 40.12982 33.23942 10678 ft 338 kts 129°
2026-04-27 17:34 40.11457 33.26416 10828 ft 360 kts 129°
2026-04-27 17:34 40.09878 33.29020 11292 ft 369 kts 128°
2026-04-27 17:34 40.08282 33.31672 11872 ft 374 kts 128°
2026-04-27 17:35 40.06666 33.34357 12467 ft 379 kts 127°
2026-04-27 17:35 40.05093 33.37155 12962 ft 384 kts 120°
2026-04-27 17:35 40.04000 33.40311 13077 ft 382 kts 105°
2026-04-27 17:35 40.03547 33.43710 13095 ft 380 kts 91°
2026-04-27 17:36 40.03771 33.47152 13581 ft 382 kts 76°
2026-04-27 17:36 40.04586 33.50441 14217 ft 381 kts 64°
2026-04-27 17:36 40.05737 33.53570 14773 ft 384 kts 63°
2026-04-27 17:36 40.06913 33.56716 15325 ft 387 kts 62°
2026-04-27 17:37 40.08104 33.59882 15836 ft 390 kts 62°
2026-04-27 17:37 40.09306 33.63075 16368 ft 393 kts 62°
2026-04-27 17:37 40.10515 33.66293 16886 ft 397 kts 62°
2026-04-27 17:37 40.11735 33.69547 17422 ft 400 kts 63°
2026-04-27 17:38 40.12959 33.72827 17936 ft 403 kts 61°
2026-04-27 17:38 40.14197 33.76146 18432 ft 408 kts 63°
2026-04-27 17:38 40.15325 33.79561 18878 ft 413 kts 70°
2026-04-27 17:38 40.15992 33.83186 19327 ft 418 kts 81°
2026-04-27 17:39 40.16158 33.86991 19780 ft 422 kts 91°
2026-04-27 17:39 40.15808 33.90820 20218 ft 427 kts 99°
2026-04-27 17:39 40.15271 33.94658 20700 ft 429 kts 100°
2026-04-27 17:39 40.14757 33.98514 21105 ft 433 kts 98°
2026-04-27 17:40 40.14309 34.02428 21510 ft 436 kts 97°
2026-04-27 17:40 40.13904 34.06368 21962 ft 438 kts 97°
2026-04-27 17:40 40.13514 34.10329 22354 ft 442 kts 97°
2026-04-27 17:40 40.13115 34.14323 22761 ft 444 kts 97°
2026-04-27 17:41 40.12701 34.18327 23197 ft 446 kts 98°
2026-04-27 17:41 40.12268 34.22349 23625 ft 448 kts 98°
2026-04-27 17:41 40.11820 34.26403 23971 ft 450 kts 98°
2026-04-27 17:41 40.11367 34.30450 24309 ft 452 kts 98°
2026-04-27 17:42 40.10909 34.34521 24645 ft 454 kts 98°
2026-04-27 17:42 40.10448 34.38615 24983 ft 456 kts 98°
2026-04-27 17:42 40.09994 34.42675 25307 ft 459 kts 98°
2026-04-27 17:42 40.09527 34.46857 25643 ft 461 kts 98°
2026-04-27 17:43 40.09068 34.50956 25977 ft 463 kts 98°
2026-04-27 17:43 40.08600 34.55131 26292 ft 466 kts 98°
2026-04-27 17:43 40.08128 34.59337 26591 ft 468 kts 98°
2026-04-27 17:43 40.07658 34.63537 27060 ft 467 kts 98°
2026-04-27 17:44 40.07188 34.67736 27482 ft 467 kts 98°
2026-04-27 17:44 40.06716 34.71930 28010 ft 465 kts 98°
2026-04-27 17:44 40.06239 34.76100 28483 ft 465 kts 99°
2026-04-27 17:44 40.05758 34.80264 28937 ft 464 kts 99°
2026-04-27 17:45 40.05277 34.84414 29480 ft 461 kts 99°
2026-04-27 17:45 40.04796 34.88559 29961 ft 461 kts 99°
2026-04-27 17:45 40.04318 34.92677 30459 ft 458 kts 99°
2026-04-27 17:45 40.03839 34.96775 30897 ft 457 kts 99°
2026-04-27 17:46 40.03360 35.00874 31282 ft 456 kts 99°
2026-04-27 17:46 40.02881 35.04963 31710 ft 455 kts 99°
2026-04-27 17:46 40.02409 35.09001 32113 ft 455 kts 99°
2026-04-27 17:46 40.01928 35.13132 32519 ft 454 kts 98°
2026-04-27 17:47 40.01458 35.17150 32952 ft 453 kts 99°
2026-04-27 17:47 40.01134 35.19899 33224 ft 453 kts 99°
2026-04-27 17:47 40.00496 35.25279 33746 ft 453 kts 98°
2026-04-27 17:47 40.00013 35.29335 34148 ft 453 kts 98°
2026-04-27 17:48 39.99522 35.33407 34451 ft 453 kts 98°
2026-04-27 17:48 39.99034 35.37467 34775 ft 453 kts 99°
2026-04-27 17:48 39.98539 35.41519 35082 ft 453 kts 99°
2026-04-27 17:48 39.98029 35.45582 35374 ft 453 kts 99°
2026-04-27 17:49 39.97513 35.49631 35671 ft 453 kts 99°
2026-04-27 17:49 39.96996 35.53685 35949 ft 453 kts 99°
2026-04-27 17:49 39.96479 35.57735 36253 ft 453 kts 99°
2026-04-27 17:49 39.95959 35.61791 36533 ft 453 kts 99°
2026-04-27 17:50 39.95439 35.65838 36792 ft 453 kts 99°
2026-04-27 17:50 39.94402 35.73964 37134 ft 457 kts 99°
2026-04-27 17:50 39.93877 35.78070 37142 ft 462 kts 99°
2026-04-27 17:51 39.92805 35.86379 37139 ft 466 kts 99°
2026-04-27 17:51 39.91716 35.94703 37155 ft 466 kts 99°
2026-04-27 17:52 39.90628 36.03037 37157 ft 466 kts 99°
2026-04-27 17:52 39.89720 36.09954 37164 ft 466 kts 100°
2026-04-27 17:53 39.88427 36.19686 37161 ft 467 kts 100°
2026-04-27 17:53 39.87317 36.28013 37175 ft 467 kts 100°
2026-04-27 17:54 39.86140 36.36267 37174 ft 467 kts 101°
2026-04-27 17:54 39.84953 36.44580 37180 ft 467 kts 100°
2026-04-27 17:55 39.83848 36.52910 37164 ft 467 kts 99°
2026-04-27 17:55 39.82758 36.61252 37172 ft 467 kts 99°
2026-04-27 17:56 39.81650 36.69575 37175 ft 467 kts 100°
2026-04-27 17:56 39.80515 36.77909 37180 ft 468 kts 100°
2026-04-27 17:57 39.79564 36.84827 37184 ft 468 kts 100°
2026-04-27 17:57 39.79265 36.93235 37187 ft 466 kts 83°
2026-04-27 17:58 39.79966 37.01619 37183 ft 467 kts 83°
2026-04-27 17:58 39.80650 37.10013 37177 ft 467 kts 83°
2026-04-27 17:59 39.81328 37.18409 37175 ft 467 kts 83°
2026-04-27 17:59 39.82000 37.26801 37168 ft 467 kts 83°
2026-04-27 18:00 39.82669 37.35197 37173 ft 466 kts 83°
2026-04-27 18:00 39.83331 37.43592 37166 ft 466 kts 84°
2026-04-27 18:01 39.83982 37.51980 37162 ft 466 kts 84°
2026-04-27 18:01 39.84615 37.60334 37159 ft 466 kts 84°
2026-04-27 18:02 39.85243 37.68745 37166 ft 466 kts 84°
2026-04-27 18:02 39.85868 37.77143 37154 ft 466 kts 84°
2026-04-27 18:03 39.86490 37.85549 37164 ft 467 kts 84°
2026-04-27 18:03 39.87109 37.93956 37156 ft 467 kts 84°
2026-04-27 18:04 39.87724 38.02369 37155 ft 466 kts 84°
2026-04-27 18:04 39.88332 38.10777 37154 ft 466 kts 84°
2026-04-27 18:05 39.88941 38.19129 37149 ft 466 kts 84°
2026-04-27 18:05 39.89540 38.27530 37137 ft 466 kts 84°
2026-04-27 18:06 39.90129 38.35938 37135 ft 466 kts 84°
2026-04-27 18:06 39.90719 38.44338 37140 ft 466 kts 84°
2026-04-27 18:07 39.91304 38.52750 37130 ft 466 kts 84°
2026-04-27 18:07 39.91883 38.61157 37140 ft 466 kts 84°
2026-04-27 18:08 39.92458 38.69565 37140 ft 466 kts 85°
2026-04-27 18:08 39.93017 38.77921 37133 ft 466 kts 85°
2026-04-27 18:09 39.93565 38.86327 37139 ft 465 kts 85°
2026-04-27 18:09 39.93969 38.94749 37138 ft 465 kts 88°
2026-04-27 18:10 39.94054 39.03180 37139 ft 465 kts 90°
2026-04-27 18:10 39.94082 39.11618 37132 ft 465 kts 89°
2026-04-27 18:11 39.94190 39.20049 37131 ft 465 kts 89°
2026-04-27 18:11 39.94337 39.28472 37146 ft 465 kts 89°
2026-04-27 18:12 39.94477 39.36889 37143 ft 464 kts 89°
2026-04-27 18:12 39.94598 39.45320 37126 ft 464 kts 89°
2026-04-27 18:13 39.94705 39.53673 37127 ft 465 kts 89°
2026-04-27 18:13 39.94805 39.62092 37135 ft 464 kts 89°
2026-04-27 18:14 39.94908 39.70505 37134 ft 464 kts 89°
2026-04-27 18:14 39.95011 39.78933 37140 ft 465 kts 89°
2026-04-27 18:15 39.95104 39.87354 37147 ft 465 kts 89°
2026-04-27 18:15 39.95188 39.95783 37144 ft 465 kts 89°
2026-04-27 18:16 39.95260 40.04202 37137 ft 465 kts 90°
2026-04-27 18:16 39.95326 40.12633 37145 ft 465 kts 90°
2026-04-27 18:17 39.95389 40.21010 37143 ft 465 kts 90°
2026-04-27 18:17 39.95450 40.29441 37135 ft 465 kts 90°
2026-04-27 18:18 39.95499 40.37874 37136 ft 465 kts 90°
2026-04-27 18:18 39.95543 40.46315 37132 ft 465 kts 90°
2026-04-27 18:19 39.95576 40.54751 37122 ft 466 kts 90°
2026-04-27 18:19 39.95595 40.63190 37121 ft 466 kts 90°
2026-04-27 18:20 39.95618 40.71634 37125 ft 465 kts 90°
2026-04-27 18:20 39.95653 40.80069 37126 ft 465 kts 90°
2026-04-27 18:21 39.95674 40.88504 37122 ft 466 kts 90°
2026-04-27 18:21 39.95678 40.96950 37129 ft 466 kts 90°
2026-04-27 18:22 39.95684 41.05410 37144 ft 467 kts 90°
2026-04-27 18:22 39.95680 41.13873 37145 ft 467 kts 91°
2026-04-27 18:23 39.95785 41.22339 37153 ft 468 kts 85°
2026-04-27 18:23 39.96423 41.30731 37106 ft 468 kts 85°
2026-04-27 18:24 39.97058 41.39181 37120 ft 469 kts 85°
2026-04-27 18:24 39.97677 41.47650 37118 ft 469 kts 85°
2026-04-27 18:25 39.98290 41.56115 37137 ft 469 kts 86°
2026-04-27 18:25 39.98898 41.64584 37126 ft 469 kts 86°
2026-04-27 18:26 39.99495 41.73055 37136 ft 469 kts 86°
2026-04-27 18:26 40.00105 41.81530 37139 ft 469 kts 85°
2026-04-27 18:27 40.00731 41.90004 37130 ft 469 kts 85°
2026-04-27 18:27 40.01345 41.98487 37129 ft 470 kts 86°
2026-04-27 18:28 40.01946 42.06972 37142 ft 470 kts 86°
2026-04-27 18:28 40.02537 42.15464 37138 ft 470 kts 86°
2026-04-27 18:29 40.03130 42.23920 37132 ft 470 kts 86°
2026-04-27 18:29 40.03715 42.32419 37129 ft 470 kts 86°
2026-04-27 18:30 40.04288 42.40929 37134 ft 470 kts 86°
2026-04-27 18:30 40.04850 42.49438 37130 ft 470 kts 87°
2026-04-27 18:31 40.05376 42.57956 37131 ft 470 kts 87°
2026-04-27 18:31 40.05886 42.66468 37126 ft 470 kts 87°
2026-04-27 18:32 40.06397 42.74936 37131 ft 471 kts 87°
2026-04-27 18:32 40.06904 42.83451 37122 ft 471 kts 87°
2026-04-27 18:33 40.07405 42.91982 37127 ft 471 kts 87°
2026-04-27 18:33 40.07907 43.00505 37133 ft 471 kts 87°
2026-04-27 18:34 40.08409 43.09028 37120 ft 471 kts 87°
2026-04-27 18:34 40.08895 43.17560 37133 ft 470 kts 88°
2026-04-27 18:35 40.09376 43.26079 37127 ft 471 kts 88°
2026-04-27 18:35 40.09845 43.34563 37112 ft 472 kts 88°
2026-04-27 18:36 40.10313 43.43111 37106 ft 472 kts 88°
2026-04-27 18:36 40.10780 43.51670 37102 ft 472 kts 88°
2026-04-27 18:37 40.11235 43.60241 37109 ft 473 kts 88°
2026-04-27 18:37 40.11890 43.68797 37092 ft 475 kts 81°
2026-04-27 18:38 40.13120 43.77282 37086 ft 475 kts 82°
2026-04-27 18:38 40.14335 43.85774 37059 ft 475 kts 82°
2026-04-27 18:39 40.15542 43.94268 37061 ft 476 kts 82°
2026-04-27 18:39 40.16740 44.02775 37055 ft 476 kts 82°
2026-04-27 18:40 40.17930 44.11289 37043 ft 476 kts 82°
2026-04-27 18:40 40.19115 44.19799 37043 ft 476 kts 82°
2026-04-27 18:41 40.20305 44.28330 37046 ft 476 kts 82°
2026-04-27 18:41 40.21481 44.36850 37025 ft 476 kts 82°
2026-04-27 18:42 40.22258 44.42510 37024 ft 477 kts 82°
2026-04-27 18:42 40.23817 44.53897 37027 ft 478 kts 82°
2026-04-27 18:43 40.24987 44.62467 37029 ft 478 kts 82°
2026-04-27 18:43 40.26215 44.71030 37029 ft 479 kts 81°
2026-04-27 18:44 40.27439 44.79609 37032 ft 479 kts 82°
2026-04-27 18:44 40.28511 44.88230 37046 ft 479 kts 84°
2026-04-27 18:45 40.29510 44.96863 37039 ft 479 kts 84°
2026-04-27 18:45 40.30527 45.05514 37035 ft 480 kts 83°
2026-04-27 18:46 40.31390 45.12702 37041 ft 481 kts 83°
2026-04-27 18:46 40.32599 45.22782 37043 ft 481 kts 83°
2026-04-27 18:47 40.33465 45.30041 37051 ft 482 kts 83°
2026-04-27 18:47 40.34490 45.38736 37057 ft 482 kts 83°
2026-04-27 18:48 40.35502 45.47423 37060 ft 482 kts 84°
2026-04-27 18:48 40.36509 45.56121 37064 ft 483 kts 84°
2026-04-27 18:49 40.37508 45.64782 37057 ft 483 kts 84°
2026-04-27 18:49 40.38508 45.73489 37057 ft 483 kts 84°
2026-04-27 18:50 40.39499 45.82214 37048 ft 483 kts 84°
2026-04-27 18:50 40.40483 45.90935 37046 ft 483 kts 84°
2026-04-27 18:51 40.41459 45.99659 37047 ft 483 kts 84°
2026-04-27 18:51 40.42436 46.08379 37045 ft 483 kts 84°
2026-04-27 18:52 40.43400 46.17115 37039 ft 483 kts 84°
2026-04-27 18:53 40.44842 46.30216 37043 ft 483 kts 84°
2026-04-27 18:53 40.45791 46.38951 37047 ft 483 kts 84°
2026-04-27 18:54 40.46734 46.47691 37048 ft 483 kts 84°
2026-04-27 18:54 40.47661 46.56372 37043 ft 483 kts 84°
2026-04-27 18:55 40.48592 46.65117 37025 ft 483 kts 84°
2026-04-27 18:55 40.49514 46.73860 37025 ft 483 kts 84°
2026-04-27 18:56 40.50425 46.82597 37007 ft 482 kts 84°
2026-04-27 18:56 40.51333 46.91327 36961 ft 482 kts 85°
2026-04-27 18:57 40.52224 47.00007 36954 ft 483 kts 85°
2026-04-27 18:57 40.53122 47.08749 36940 ft 482 kts 85°
2026-04-27 18:58 40.54012 47.17491 36934 ft 482 kts 85°
2026-04-27 18:58 40.54895 47.26235 36948 ft 482 kts 85°
2026-04-27 18:59 40.55766 47.35004 36961 ft 483 kts 85°
2026-04-27 18:59 40.56634 47.43711 36976 ft 484 kts 85°
2026-04-27 19:00 40.57503 47.52491 37002 ft 484 kts 85°
2026-04-27 19:00 40.58362 47.61282 37026 ft 484 kts 85°
2026-04-27 19:01 40.59209 47.70064 37035 ft 484 kts 85°
2026-04-27 19:01 40.60049 47.78846 37045 ft 484 kts 85°
2026-04-27 19:02 40.60887 47.87582 37047 ft 484 kts 85°
2026-04-27 19:02 40.61720 47.96373 37058 ft 484 kts 85°
2026-04-27 19:03 40.62543 48.05171 37046 ft 484 kts 85°
2026-04-27 19:03 40.63360 48.13969 36882 ft 484 kts 85°
2026-04-27 19:03 40.63628 48.16883 36709 ft 483 kts 85°
2026-04-27 19:04 40.64168 48.22747 36366 ft 482 kts 85°
2026-04-27 19:04 40.64572 48.27131 36120 ft 481 kts 85°
2026-04-27 19:04 40.64974 48.31505 35848 ft 481 kts 85°
2026-04-27 19:04 40.65373 48.35894 35016 ft 486 kts 86°
2026-04-27 19:05 40.65774 48.40338 34168 ft 491 kts 86°
2026-04-27 19:05 40.66177 48.44809 33491 ft 490 kts 85°
2026-04-27 19:05 40.66574 48.49202 32665 ft 490 kts 85°
2026-04-27 19:05 40.66982 48.53727 31794 ft 492 kts 85°
2026-04-27 19:06 40.67380 48.58160 30950 ft 493 kts 85°
2026-04-27 19:06 40.67779 48.62657 30081 ft 494 kts 85°
2026-04-27 19:06 40.68171 48.67163 29014 ft 496 kts 85°
2026-04-27 19:06 40.68562 48.71681 27913 ft 498 kts 85°
2026-04-27 19:07 40.68959 48.76231 26781 ft 500 kts 85°
2026-04-27 19:07 40.69355 48.80772 25347 ft 496 kts 85°
2026-04-27 19:07 40.69751 48.85308 23616 ft 497 kts 85°
2026-04-27 19:07 40.70140 48.89828 22167 ft 491 kts 84°
2026-04-27 19:08 40.70519 48.94256 20731 ft 486 kts 85°
2026-04-27 19:08 40.70892 48.98607 19696 ft 469 kts 85°
2026-04-27 19:08 40.71249 49.02797 18805 ft 456 kts 84°
2026-04-27 19:08 40.71599 49.06947 17815 ft 453 kts 85°
2026-04-27 19:09 40.71941 49.11051 16919 ft 448 kts 84°
2026-04-27 19:09 40.72278 49.15129 16018 ft 447 kts 84°
2026-04-27 19:09 40.72613 49.19189 15137 ft 445 kts 84°
2026-04-27 19:09 40.72938 49.23184 14291 ft 429 kts 85°
2026-04-27 19:10 40.72962 49.27051 13708 ft 419 kts 92°
2026-04-27 19:10 40.72861 49.30920 13446 ft 424 kts 92°
2026-04-27 19:10 40.72767 49.34808 13180 ft 423 kts 93°
2026-04-27 19:10 40.72706 49.37391 13007 ft 426 kts 92°
2026-04-27 19:11 40.72587 49.42577 12660 ft 421 kts 92°
2026-04-27 19:11 40.72499 49.46389 12400 ft 422 kts 92°
2026-04-27 19:11 40.72409 49.50246 12149 ft 419 kts 92°
2026-04-27 19:11 40.72316 49.54062 11909 ft 416 kts 92°
2026-04-27 19:12 40.72219 49.57882 12049 ft 419 kts 92°
2026-04-27 19:12 40.72115 49.61713 12078 ft 416 kts 92°
2026-04-27 19:12 40.71992 49.65521 12063 ft 416 kts 96°
2026-04-27 19:12 40.71322 49.69221 12070 ft 415 kts 115°
2026-04-27 19:13 40.69850 49.72447 12065 ft 410 kts 133°
2026-04-27 19:13 40.67730 49.74902 12060 ft 404 kts 152°
2026-04-27 19:13 40.65188 49.76395 12062 ft 398 kts 167°
2026-04-27 19:13 40.62468 49.76838 12063 ft 392 kts 184°
2026-04-27 19:14 40.59781 49.76530 12043 ft 376 kts 188°
2026-04-27 19:14 40.57267 49.76134 12054 ft 352 kts 192°
2026-04-27 19:14 40.54909 49.75715 12053 ft 332 kts 193°
2026-04-27 19:14 40.52683 49.75295 12040 ft 313 kts 191°
2026-04-27 19:15 40.50603 49.74908 12044 ft 296 kts 192°
2026-04-27 19:15 40.48568 49.74536 12052 ft 293 kts 193°
2026-04-27 19:15 40.46552 49.74173 12056 ft 292 kts 193°
2026-04-27 19:15 40.44532 49.73814 12052 ft 293 kts 191°
2026-04-27 19:16 40.42505 49.73453 12052 ft 295 kts 191°
2026-04-27 19:16 40.41157 49.73216 12053 ft 295 kts 191°
2026-04-27 19:16 40.38437 49.72744 12051 ft 295 kts 191°
2026-04-27 19:16 40.36412 49.72399 12052 ft 291 kts 193°
2026-04-27 19:17 40.34433 49.72060 12056 ft 292 kts 197°
2026-04-27 19:17 40.32423 49.71713 12051 ft 291 kts 193°
2026-04-27 19:17 40.30412 49.71363 12051 ft 293 kts 191°
2026-04-27 19:17 40.28399 49.71013 12048 ft 291 kts 189°
2026-04-27 19:18 40.26354 49.70949 12048 ft 299 kts 171°
2026-04-27 19:18 40.24376 49.71861 12048 ft 303 kts 163°
2026-04-27 19:18 40.22374 49.72678 12049 ft 301 kts 169°
2026-04-27 19:18 40.20348 49.73299 12049 ft 294 kts 175°
2026-04-27 19:19 40.18393 49.73828 12045 ft 279 kts 172°
2026-04-27 19:19 40.16501 49.74320 11654 ft 281 kts 172°
2026-04-27 19:19 40.14533 49.74893 10902 ft 299 kts 165°
2026-04-27 19:19 40.12670 49.76293 10121 ft 323 kts 141°
2026-04-27 19:20 40.10992 49.78335 9216 ft 334 kts 139°
2026-04-27 19:20 40.09327 49.80445 8302 ft 333 kts 139°
2026-04-27 19:20 40.07676 49.82566 7461 ft 332 kts 138°
2026-04-27 19:20 40.06186 49.84772 7128 ft 315 kts 123°
2026-04-27 19:21 40.05230 49.87226 7000 ft 293 kts 117°
2026-04-27 19:21 40.04385 49.89524 6992 ft 268 kts 118°
2026-04-27 19:21 40.03605 49.91618 6993 ft 247 kts 118°
2026-04-27 19:21 40.02846 49.93633 6997 ft 248 kts 118°
2026-04-27 19:22 40.02093 49.95638 7004 ft 246 kts 116°
2026-04-27 19:22 40.01605 49.97763 7003 ft 244 kts 98°
2026-04-27 19:22 40.01432 49.99948 7003 ft 247 kts 97°
2026-04-27 19:22 40.01255 50.02190 7003 ft 251 kts 97°
2026-04-27 19:23 40.01073 50.04442 7000 ft 248 kts 97°
2026-04-27 19:23 40.00893 50.06670 6999 ft 247 kts 96°
2026-04-27 19:23 40.00713 50.08906 7003 ft 248 kts 94°
2026-04-27 19:23 40.00802 50.11146 7000 ft 250 kts 76°
2026-04-27 19:24 40.01219 50.13340 7002 ft 248 kts 74°
2026-04-27 19:24 40.01635 50.15505 7000 ft 244 kts 75°
2026-04-27 19:24 40.02050 50.17671 6996 ft 247 kts 74°
2026-04-27 19:24 40.02466 50.19855 7002 ft 249 kts 75°
2026-04-27 19:25 40.02883 50.22038 6999 ft 248 kts 73°
2026-04-27 19:25 40.03531 50.24082 6997 ft 243 kts 54°
2026-04-27 19:25 40.04467 50.25925 7002 ft 245 kts 52°
2026-04-27 19:25 40.05425 50.27776 7001 ft 245 kts 54°
2026-04-27 19:26 40.06376 50.29622 7007 ft 245 kts 52°
2026-04-27 19:26 40.07509 50.31211 7000 ft 236 kts 27°
2026-04-27 19:26 40.08992 50.31966 6995 ft 225 kts 358°
2026-04-27 19:26 40.10499 50.31837 6998 ft 213 kts 339°
2026-04-27 19:27 40.11798 50.30947 6996 ft 211 kts 316°
2026-04-27 19:27 40.12913 50.29628 6649 ft 223 kts 313°
2026-04-27 19:27 40.14081 50.28236 6178 ft 230 kts 315°
2026-04-27 19:27 40.15247 50.26861 5976 ft 225 kts 315°
2026-04-27 19:28 40.16389 50.25517 5850 ft 217 kts 315°
2026-04-27 19:28 40.17489 50.24220 5713 ft 208 kts 315°
2026-04-27 19:28 40.18542 50.22978 5588 ft 200 kts 316°
2026-04-27 19:28 40.19569 50.21766 5305 ft 199 kts 317°
2026-04-27 19:29 40.20600 50.20548 5025 ft 199 kts 317°
2026-04-27 19:29 40.21619 50.19341 4795 ft 196 kts 317°
2026-04-27 19:29 40.22623 50.18152 4552 ft 193 kts 318°
2026-04-27 19:29 40.23601 50.16997 4410 ft 185 kts 319°
2026-04-27 19:30 40.24531 50.15894 4287 ft 177 kts 319°
2026-04-27 19:30 40.25424 50.14834 4084 ft 173 kts 319°
2026-04-27 19:30 40.26327 50.13762 3751 ft 175 kts 321°
2026-04-27 19:30 40.27202 50.12719 3614 ft 166 kts 321°
2026-04-27 19:31 40.28033 50.11725 3464 ft 159 kts 322°
2026-04-27 19:31 40.28851 50.10752 3225 ft 158 kts 323°
2026-04-27 19:31 40.29657 50.09797 2993 ft 154 kts 323°
2026-04-27 19:31 40.30461 50.08941 2800 ft 146 kts 337°
2026-04-27 19:32 40.31377 50.08594 2763 ft 132 kts 346°
2026-04-27 19:32 40.32245 50.08323 2649 ft 126 kts 347°
2026-04-27 19:32 40.33088 50.08060 2513 ft 124 kts 345°
2026-04-27 19:32 40.33922 50.07799 2360 ft 122 kts 345°
2026-04-27 19:33 40.34750 50.07540 2202 ft 122 kts 345°
2026-04-27 19:33 40.35031 50.07453 2147 ft 122 kts 345°
2026-04-27 19:33 40.36395 50.07026 1887 ft 121 kts 345°
2026-04-27 19:33 40.37213 50.06770 1720 ft 121 kts 345°
2026-04-27 19:34 40.38028 50.06515 1571 ft 120 kts 345°
2026-04-27 19:34 40.38841 50.06260 1392 ft 120 kts 347°
2026-04-27 19:34 40.39642 50.06009 1228 ft 120 kts 346°
2026-04-27 19:34 40.40450 50.05756 1066 ft 119 kts 345°
2026-04-27 19:35 40.41257 50.05494 942 ft 119 kts 345°
2026-04-27 19:35 40.42076 50.05214 703 ft 122 kts 347°
2026-04-27 19:35 40.42906 50.04944 541 ft 127 kts 348°
2026-04-27 19:35 40.43745 50.04733 407 ft 119 kts 338°
2026-04-27 19:36 40.44557 50.04489 257 ft 118 kts 337°
2026-04-27 19:36 40.45349 50.04202 136 ft 117 kts 349°
2026-04-27 19:36 40.46151 50.03966 28 ft 116 kts 341°
2026-04-27 19:36 40.46614 50.03831 8 ft 88 kts 343°
2026-04-27 19:37 40.46956 50.03710 10 ft 12 kts 346°
2026-04-27 19:37 40.46991 50.03699 10 ft 0 kts 346°
2026-04-27 19:37 40.46988 50.03700 10 ft 0 kts 346°